Wind_Speed
6 5 5 5 4 5 4 3 2 3 4 5 4 2 5 4 2 2 4 1 0 5 4 3 4 2 3 9 8 7 11 13 14 15 15 15 14 14 14 14 14 13 13 13 12 11 11 10 10 10 10 9 8 8 8 8 8 7 7 7 7 6 6 5 4 5 5 4 3 2 2 3 5 6 7 7 8 8 10 9 8 6 4 4 4 4 3
7 5 6 6 6 7 6 6 5 3 4 2 1 3 4 3 2 3 4 1 2 5 5 6 5 3 3 7 7 8 10 12 12 13 13 13 14 14 13 13 14 13 13 14 13 12 11 11 11 10 9 9 9 9 9 9 9 8 8 8 8 8 7 6 5 5 5 5 4 3 3 5 6 7 7 8 8 9 10 10 8 6 3 4 5 4 4
7 6 7 6 6 7 8 8 7 4 4 4 4 5 5 3 2 3 1 2 4 5 6 7 4 2 4 6 7 8 9 10 11 11 11 11 11 12 12 13 13 13 13 14 13 12 11 11 11 10 9 9 8 8 8 9 9 9 9 9 10 10 9 8 7 7 6 5 4 3 4 6 7 8 8 8 9 10 10 10 7 5 4 4 5 6 5
6 7 7 6 6 8 9 10 9 6 5 5 6 6 6 5 4 4 2 2 3 5 6 4 2 5 7 8 9 9 9 9 9 9 8 9 10 10 11 12 13 14 14 14 14 13 11 11 11 11 9 9 8 9 9 9 9 9 9 10 11 11 10 9 7 7 7 5 4 4 5 7 8 8 8 9 10 11 10 8 6 4 5 5 5 6 5
7 6 4 3 4 6 6 7 7 7 6 6 6 7 8 6 5 4 2 2 4 4 4 2 5 8 8 9 8 8 8 8 7 6 6 7 8 9 11 12 13 14 14 14 15 14 12 12 12 11 11 9 8 9 9 9 9 9 10 11 11 10 10 9 8 7 7 6 6 5 7 9 9 9 9 10 11 10 8 7 5 5 5 6 6 6 5
8 7 4 4 6 4 4 5 5 7 8 7 8 8 9 8 5 3 4 4 4 3 3 3 7 9 10 10 10 7 6 6 6 6 5 6 7 9 11 11 12 13 13 13 14 14 13 12 12 12 12 11 9 9 9 10 11 11 11 11 11 10 10 9 8 7 7 7 7 6 8 9 10 10 10 11 11 9 7 5 4 5 5 5 6 6 5
6 6 5 6 4 3 7 6 5 5 6 7 9 10 9 9 7 6 6 6 5 5 5 6 10 14 14 13 12 9 6 5 4 4 4 5 6 8 9 10 11 12 13 13 14 14 14 13 13 12 12 12 11 10 10 10 11 12 12 12 10 9 9 9 8 7 7 6 6 7 9 10 10 10 11 11 10 8 5 4 4 5 5 5 6 6 5
3 5 5 4 2 5 8 6 4 3 2 2 4 7 9 8 7 7 7 7 8 8 8 9 13 16 17 15 13 10 7 6 4 2 2 3 5 6 6 6 8 10 12 13 13 14 14 14 13 12 11 11 11 11 10 10 11 12 13 13 11 9 8 8 7 7 6 6 6 7 8 9 10 11 11 9 7 6 4 4 4 5 5 4 4 5 5
3 5 3 2 5 7 6 5 4 3 1 1 1 3 7 6 5 6 7 8 9 11 11 11 11 11 11 12 12 12 11 8 6 3 1 3 5 6 6 6 7 9 11 12 13 14 13 14 13 12 11 11 11 11 11 10 10 11 12 12 11 9 8 7 7 6 5 6 6 6 7 9 10 11 9 7 5 5 4 4 4 3 4 4 4 4 4
3 4 2 4 5 5 5 6 4 1 1 1 2 1 5 5 5 6 7 8 9 10 10 9 6 4 3 7 9 12 13 11 9 7 3 2 3 5 6 7 7 9 11 12 12 13 13 13 14 13 12 12 12 12 12 11 10 11 12 12 11 9 8 7 6 6 6 7 6 4 6 9 10 9 6 5 4 4 3 3 4 4 4 4 4 5 6
4 5 4 4 3 2 5 8 6 4 3 1 2 2 3 5 5 6 7 9 10 8 7 5 2 2 3 5 7 11 12 11 10 8 5 1 2 4 6 7 7 7 9 12 12 13 13 14 15 15 14 13 13 12 12 11 10 11 12 12 11 10 9 8 8 9 9 9 7 4 5 8 8 6 4 3 4 4 3 3 4 4 3 3 5 7 8
4 5 4 2 1 4 6 7 7 5 3 1 3 4 3 5 5 6 8 10 11 10 9 8 7 5 5 5 6 9 9 8 8 8 7 4 2 3 3 5 6 6 8 11 13 14 15 15 15 15 15 14 13 13 12 11 10 11 12 11 11 11 10 10 11 12 11 9 7 5 5 5 4 3 3 3 3 3 3 3 3 4 4 5 7 9 10
5 5 4 2 3 4 5 5 5 4 3 3 3 1 5 8 7 7 9 11 12 12 12 12 11 9 7 6 6 8 8 8 7 7 7 6 3 2 2 4 5 6 7 9 12 12 13 14 14 13 13 14 14 13 12 11 11 11 11 11 12 12 13 14 14 12 10 9 8 6 5 3 2 2 2 2 2 3 3 4 5 6 6 7 9 10 10
4 4 4 1 3 3 2 3 5 3 3 2 2 5 9 11 10 9 10 11 12 13 14 14 12 10 9 8 7 9 10 9 8 7 6 6 4 2 1 2 4 6 5 6 7 8 9 10 12 12 13 13 13 12 11 11 11 11 11 12 13 13 15 16 14 11 10 10 8 6 4 2 2 2 1 1 1 3 4 5 7 8 7 8 10 10 10
2 4 4 2 2 2 1 2 4 2 1 3 9 11 12 12 11 11 11 10 10 11 13 13 12 11 10 9 9 9 10 10 9 8 7 5 4 4 3 2 1 3 4 4 5 6 6 6 8 10 11 12 12 12 11 11 12 11 12 13 13 14 16 16 13 11 10 10 9 6 3 3 4 4 2 1 2 3 5 6 8 9 8 9 10 9 8
3 5 3 0 1 3 1 0 2 4 6 9 12 13 12 11 10 10 10 10 9 9 10 11 11 10 10 10 10 9 10 10 10 10 10 7 5 5 4 3 2 2 3 3 4 5 5 5 6 8 10 11 11 11 12 12 12 11 13 14 13 15 16 15 12 11 11 10 9 5 4 5 6 5 3 1 2 4 5 7 8 9 9 9 9 7 6
1 1 3 3 3 4 3 3 6 10 11 10 11 12 13 11 9 8 9 9 9 9 9 9 9 10 9 9 9 10 10 11 12 12 12 10 6 3 3 2 3 3 2 2 3 3 4 5 5 7 9 10 11 12 13 13 12 12 13 13 13 13 15 14 13 12 11 9 8 5 6 8 7 5 3 1 3 4 6 7 8 8 7 7 6 5 4
3 3 5 5 5 6 7 7 9 11 11 11 11 12 13 11 9 9 9 8 9 9 8 8 9 9 9 9 9 10 10 11 12 13 13 12 8 4 3 4 4 3 2 1 2 3 4 4 5 7 9 9 10 12 13 13 12 12 13 13 12 11 13 14 14 12 10 9 7 7 9 9 6 5 3 1 3 5 4 3 5 6 5 5 4 3 4
3 2 4 6 6 7 9 10 11 11 11 11 11 12 12 11 9 9 8 7 7 7 8 9 9 9 9 9 10 10 10 11 12 12 13 13 11 7 5 4 5 3 1 1 2 3 4 4 6 7 8 8 9 11 13 12 11 11 12 12 11 11 12 14 14 12 9 8 8 10 11 8 6 4 3 2 1 3 2 1 3 4 4 4 3 3 4
1 2 6 7 7 8 8 9 11 11 11 12 12 11 11 10 8 8 8 7 7 7 9 10 9 9 10 10 10 10 10 10 10 11 12 13 12 10 6 5 4 3 2 2 2 3 4 5 6 7 8 9 10 11 12 12 12 11 10 10 11 12 13 14 13 10 8 8 11 12 10 9 8 6 4 3 2 2 2 1 2 3 4 4 4 4 5
3 4 7 9 8 7 7 8 11 11 11 11 11 10 9 8 7 7 7 7 8 8 9 10 10 10 10 10 11 10 9 9 10 10 11 11 12 10 7 5 4 2 3 3 3 4 4 4 6 8 8 9 10 11 12 13 12 11 10 11 12 12 13 12 11 8 8 11 12 11 10 10 8 6 5 4 4 3 1 1 0 2 3 3 3 3 5
3 4 11 10 5 5 9 10 11 11 10 10 10 8 8 7 7 7 6 7 8 9 9 9 9 10 10 10 11 10 9 9 10 11 10 10 11 11 8 6 4 3 3 3 3 4 4 4 6 8 8 9 10 12 14 15 14 13 12 12 12 12 11 10 9 9 11 13 12 11 10 9 6 5 4 3 3 2 1 1 1 3 5 4 2 2 3
1 6 14 10 2 7 13 12 10 10 9 8 8 8 7 7 7 7 7 7 8 8 8 8 8 9 10 10 11 10 9 9 10 11 10 10 11 12 10 7 5 4 4 4 4 4 4 6 7 8 8 10 12 14 16 17 16 15 13 13 12 10 9 10 10 11 12 13 13 12 10 8 6 4 3 2 1 1 0 1 3 6 9 8 5 3 3
2 9 14 8 4 11 14 11 10 10 7 7 8 8 8 8 8 8 7 7 7 6 6 7 8 9 10 10 10 10 9 9 10 10 10 10 12 13 12 9 6 5 4 5 6 5 5 6 7 9 9 11 13 14 15 15 15 14 13 13 12 11 10 10 11 13 13 13 14 13 10 8 6 4 3 3 1 1 2 3 4 7 9 9 7 5 4
4 10 12 8 8 12 13 10 9 8 7 6 7 7 7 7 7 7 6 6 6 5 5 5 6 8 10 10 9 9 9 9 10 11 11 12 13 14 13 10 7 6 5 5 6 6 6 6 8 10 10 11 12 12 12 13 14 14 13 12 11 10 10 10 12 15 15 14 14 12 9 7 5 4 5 5 3 1 2 4 5 6 8 9 8 6 4
6 11 12 11 10 11 10 8 7 7 6 6 6 6 6 6 7 6 4 4 6 5 5 5 6 8 10 10 10 10 9 10 11 11 12 13 14 14 13 10 8 7 6 5 6 6 7 8 9 10 10 10 10 9 8 10 13 13 12 11 10 10 11 11 13 16 17 15 13 11 8 6 6 6 6 6 4 3 2 3 4 5 7 9 9 6 4
10 13 12 10 9 8 7 6 6 6 6 6 6 5 4 5 6 5 3 3 4 6 6 6 7 9 10 10 11 11 11 11 10 10 12 14 14 15 14 11 8 7 6 6 7 8 10 11 11 10 10 9 9 7 5 6 10 12 12 11 10 11 11 11 13 16 16 14 12 11 8 7 7 7 6 5 4 4 3 2 2 2 3 6 8 6 4
12 12 9 6 6 8 8 6 7 7 6 5 5 4 3 3 3 3 2 3 4 6 7 7 9 11 10 10 10 11 11 10 10 10 12 14 15 15 15 13 9 7 7 7 7 9 11 12 12 10 9 8 9 8 6 6 8 10 12 12 11 12 12 13 16 17 16 14 11 10 8 7 7 7 6 5 4 3 3 3 3 2 1 2 5 6 5
14 12 9 5 5 7 9 8 8 8 6 5 4 3 2 2 3 3 3 4 5 5 5 7 10 11 9 9 9 10 11 11 11 11 13 14 15 15 15 15 11 7 7 7 7 8 10 12 13 11 9 9 10 10 9 8 8 9 12 13 12 11 13 16 18 17 15 12 10 9 8 8 8 8 6 5 4 4 3 4 3 1 1 2 3 5 5
14 13 11 8 6 7 8 8 7 7 5 3 2 2 2 4 5 4 5 6 7 6 6 9 11 10 9 9 9 9 10 11 12 13 13 14 14 14 15 15 13 8 6 7 7 7 8 10 13 12 10 9 10 10 9 8 7 8 10 11 11 11 15 18 19 16 13 11 10 9 9 9 9 7 6 5 5 4 4 4 4 2 2 3 2 2 2
15 15 14 10 8 7 7 7 7 6 4 2 0 1 3 4 5 5 5 6 7 7 8 10 11 11 12 11 11 11 11 11 12 13 13 13 15 15 15 15 13 10 7 7 8 8 8 9 12 13 12 11 10 10 9 8 7 8 9 11 13 15 18 18 17 14 12 11 11 11 10 10 8 7 6 6 6 5 5 4 3 2 2 2 2 2 2
15 15 12 10 9 8 7 7 7 6 4 3 2 3 4 5 6 6 6 7 8 9 10 10 11 12 12 13 12 12 11 11 12 12 12 12 13 14 14 15 14 13 10 8 8 8 8 9 11 14 15 14 12 11 10 8 8 9 10 12 14 16 17 17 15 13 12 11 11 12 11 10 8 7 7 7 6 6 6 5 4 2 2 2 3 2 2
15 15 13 13 14 12 9 9 9 7 5 4 4 5 6 7 8 9 10 11 11 11 10 10 11 12 12 12 12 11 11 12 13 12 11 10 11 11 12 12 12 11 10 8 7 8 8 9 11 13 15 16 14 12 10 9 10 11 13 15 16 17 17 16 14 13 11 11 12 13 12 10 9 8 8 8 7 6 6 6 4 3 2 3 3 3 3
15 14 14 15 16 14 11 10 10 9 7 6 6 7 7 8 9 10 12 13 12 11 11 11 11 12 12 11 12 11 11 12 13 13 11 11 11 11 10 10 10 10 9 8 8 9 9 9 12 15 17 17 16 14 13 12 12 13 16 18 18 17 16 15 13 12 11 12 13 14 12 11 9 9 9 8 8 7 7 7 5 4 4 4 3 4 4
15 14 14 14 13 12 9 8 8 9 9 8 6 6 6 8 10 12 14 14 14 13 14 12 11 11 11 11 11 12 12 12 12 12 12 11 12 11 10 10 10 9 9 8 9 12 12 11 12 15 18 19 18 16 15 16 16 16 17 18 18 17 15 14 12 12 12 13 14 14 12 11 10 10 10 9 8 8 8 7 6 5 4 4 4 4 4
15 17 19 17 14 11 10 9 8 8 9 9 8 7 8 10 12 14 15 16 15 15 13 11 9 10 10 10 11 12 13 13 13 12 11 11 11 10 10 10 10 10 9 9 9 12 14 13 15 17 19 20 19 18 18 18 18 18 18 18 17 16 15 13 13 13 14 15 14 13 12 12 11 11 10 10 9 8 8 8 7 6 5 5 4 4 3
13 17 19 18 15 13 12 11 11 10 10 10 10 10 11 12 14 15 15 16 16 13 9 8 8 9 10 10 11 12 12 12 12 12 12 11 11 10 10 11 10 10 11 10 9 10 12 14 17 19 21 21 20 19 19 20 20 19 19 18 17 16 15 14 14 15 15 15 14 13 13 12 11 11 11 10 9 9 9 8 7 6 6 5 5 4 4
11 13 15 16 17 15 13 13 12 11 11 11 10 11 12 13 14 15 15 15 14 11 8 8 9 9 9 10 12 13 12 12 12 13 12 11 11 11 11 12 11 11 12 12 9 8 10 14 18 20 22 23 22 20 20 20 21 21 20 18 17 16 16 15 16 16 15 15 15 14 13 12 11 11 11 11 10 10 9 8 7 7 6 6 5 4 4
11 12 13 14 14 13 12 12 11 11 10 10 10 11 12 13 13 14 14 14 11 9 8 9 9 9 10 11 13 14 12 11 11 13 13 12 12 12 13 13 13 13 14 12 9 8 12 17 20 23 24 23 22 21 21 22 22 23 21 19 18 17 16 16 16 16 16 16 16 15 13 12 12 12 11 11 11 11 10 9 8 7 6 6 6 5 4
12 13 13 12 11 11 11 10 10 9 10 10 10 11 12 12 13 13 12 11 9 8 9 10 10 10 10 11 12 13 12 11 11 12 13 12 13 13 14 15 14 15 15 13 10 11 15 18 21 23 24 24 23 23 23 23 24 24 22 20 19 18 17 17 17 17 17 17 17 16 14 13 12 12 12 12 12 11 11 10 9 7 7 7 6 5 5
13 13 12 11 10 9 9 9 8 8 9 9 9 10 11 11 11 10 10 9 9 10 11 12 11 11 11 11 12 12 12 12 12 12 12 13 13 14 15 16 16 15 14 13 12 14 17 19 21 23 24 24 25 25 25 25 25 23 22 20 20 19 18 17 17 17 17 17 17 16 15 14 13 12 12 12 13 12 11 10 8 7 7 7 7 6 6
12 11 10 9 9 8 7 7 6 6 6 6 7 7 8 8 8 9 9 10 10 12 13 13 13 14 15 14 13 13 13 13 12 12 12 13 13 14 16 17 16 15 15 14 14 15 16 18 22 25 26 26 26 26 25 25 25 23 22 21 21 20 19 18 18 18 17 18 17 17 16 15 14 13 13 13 12 12 11 10 9 8 7 8 8 7 7
10 9 8 7 7 6 5 4 3 2 3 4 5 5 6 7 8 9 10 11 11 12 13 14 16 17 17 15 13 13 13 13 13 13 13 13 14 14 16 17 15 15 16 17 15 13 13 15 21 26 27 26 26 26 26 25 24 23 23 22 22 20 19 19 18 18 18 18 18 18 17 16 15 14 13 13 12 12 11 10 9 8 8 9 9 8 8
9 8 8 7 5 4 2 1 0 0 1 3 4 5 6 7 8 9 10 11 12 12 14 15 16 16 15 14 13 13 13 13 14 15 15 16 16 15 16 16 15 15 17 18 16 13 12 13 19 25 27 26 26 27 27 25 24 24 24 23 23 22 21 20 19 18 18 19 19 18 18 17 16 14 13 13 12 12 11 10 9 9 9 9 9 9 9
9 8 7 5 4 3 3 2 2 1 2 3 5 7 7 8 9 10 10 11 12 12 13 13 14 13 13 13 13 13 13 13 13 14 16 17 18 17 16 15 15 15 17 19 18 15 12 13 18 24 27 27 28 29 28 26 25 25 24 24 24 23 22 20 19 19 19 19 19 18 18 18 16 14 14 13 12 12 11 10 10 9 9 9 10 10 10
8 7 6 5 4 3 3 2 2 4 5 6 7 8 9 10 11 11 10 10 11 11 11 12 13 13 13 13 14 15 15 15 15 15 16 17 20 20 18 17 16 16 17 19 19 16 14 16 20 24 26 28 30 31 29 27 26 26 25 25 26 25 22 21 20 19 19 19 19 18 18 18 16 14 14 13 12 12 11 11 10 9 9 10 10 11 11
8 7 5 4 3 3 2 3 5 6 7 8 8 9 10 11 11 10 9 10 10 11 11 12 13 13 14 14 15 16 17 18 19 19 18 18 20 21 20 19 18 19 20 20 18 16 15 17 21 23 26 29 32 32 30 29 28 27 26 27 27 25 22 21 20 20 19 19 19 19 18 18 16 15 15 14 13 12 12 11 10 10 9 10 11 12 13
7 6 5 3 2 2 3 5 6 7 7 8 10 11 11 10 9 8 8 9 10 11 11 12 13 15 16 17 17 18 19 20 21 23 22 20 21 21 21 19 18 19 21 22 20 18 18 19 21 24 28 31 33 33 32 30 29 28 28 29 28 26 23 21 21 20 20 20 20 20 19 18 17 16 15 15 14 13 12 11 11 10 10 10 11 12 13
6 5 4 2 2 3 4 6 6 6 7 8 9 9 9 8 8 9 9 10 11 12 13 14 16 18 19 19 19 20 19 19 21 23 24 23 22 22 22 20 19 20 21 22 21 21 21 21 22 25 30 34 35 34 33 31 30 30 30 30 29 27 24 21 20 20 20 20 21 21 20 18 18 17 16 15 15 14 13 12 12 12 10 10 11 13 14
6 4 3 1 2 4 5 5 6 7 8 8 7 7 8 9 9 10 11 12 13 14 16 17 19 21 22 22 22 22 21 20 21 24 25 25 24 24 23 23 22 22 22 21 22 22 22 22 24 28 33 36 36 35 34 33 32 32 32 32 31 28 25 23 21 21 20 20 21 21 20 19 18 18 17 16 15 15 14 13 13 12 11 10 11 13 14
3 2 1 2 4 5 5 6 7 8 9 9 8 8 9 10 10 11 12 13 15 16 18 20 21 22 23 24 24 22 21 22 23 24 25 25 24 24 24 24 24 24 24 23 22 23 24 25 26 28 33 36 37 36 35 34 34 34 34 34 32 30 28 26 24 23 22 21 20 20 20 19 19 19 18 17 16 16 15 15 14 13 11 11 12 14 15
1 1 2 2 3 4 5 6 7 7 8 9 9 10 10 11 12 13 14 16 17 17 18 22 24 24 23 23 23 22 21 22 23 24 24 23 23 23 23 23 24 25 26 24 22 24 27 28 26 26 30 35 36 35 36 36 35 35 36 35 32 30 28 27 26 24 22 21 20 20 19 19 19 19 18 18 18 17 16 16 15 14 12 12 14 15 16
Wind_Direction
86 78 101 107 109 109 92 91 130 174 183 206 244 313 11 346 286 96 77 350 36 95 79 59 69 47 81 94 101 121 132 137 141 146 152 158 165 169 171 174 174 174 173 172 174 174 173 178 179 176 177 178 178 176 176 181 182 183 189 190 185 179 174 178 182 190 195 192 203 241 286 308 320 335 339 340 345 346 349 349 346 348 342 337 1 20 15
103 101 113 118 125 117 98 84 78 96 130 128 41 35 23 336 313 55 75 107 70 69 33 13 18 6 63 93 100 111 122 131 140 148 157 164 171 175 176 177 179 181 180 178 179 179 181 184 184 185 185 183 180 180 185 190 188 190 195 195 193 189 185 188 192 199 208 209 219 254 290 307 323 334 335 338 341 340 343 345 343 347 346 342 352 359 354
115 119 120 120 126 116 96 81 67 73 95 75 50 35 10 337 322 9 36 149 105 60 19 4 13 52 99 114 116 110 111 123 138 150 161 168 175 179 177 179 184 187 187 185 185 187 190 189 189 191 190 184 182 185 194 198 195 196 200 200 198 194 191 192 197 207 214 217 229 264 299 314 322 328 331 336 336 333 338 344 347 354 358 350 344 347 345
131 139 134 117 124 125 104 77 56 56 69 61 54 43 18 0 343 329 289 165 80 33 4 359 81 115 115 117 116 110 107 119 136 150 160 170 177 178 179 185 190 192 192 192 192 193 195 194 194 195 191 185 184 190 201 205 201 201 206 208 205 200 197 197 202 216 222 226 241 268 297 311 319 325 329 333 332 332 340 350 355 357 356 349 340 342 337
147 158 156 133 166 168 122 73 49 54 69 77 75 61 44 24 349 330 344 34 27 11 353 22 114 113 99 94 101 107 106 113 131 145 155 170 180 183 186 191 197 199 198 197 197 197 197 196 198 200 199 196 192 195 202 205 202 203 210 214 211 206 206 205 208 223 233 242 257 276 294 306 317 324 328 334 335 336 344 352 354 351 350 343 336 341 336
158 164 188 194 205 196 125 88 63 62 69 76 76 63 48 39 28 31 44 35 35 48 37 63 95 93 83 83 90 96 100 110 128 142 155 172 183 189 193 197 204 205 200 199 201 200 199 198 199 203 206 209 211 209 205 203 203 204 209 216 214 210 212 210 210 224 240 252 267 280 291 303 316 323 329 335 334 335 341 346 345 350 357 349 340 342 333
160 160 203 218 215 141 120 118 94 71 65 71 80 73 55 43 42 52 54 50 61 75 75 84 92 91 88 86 85 84 81 84 103 137 163 181 185 190 195 198 202 203 202 202 202 201 199 198 200 204 207 211 216 214 208 206 205 204 208 214 212 208 211 209 209 224 240 255 269 280 289 303 317 325 329 330 330 332 335 333 346 0 5 356 343 336 329
160 178 215 228 161 127 127 130 137 132 116 134 117 83 59 40 32 42 47 56 76 92 100 104 104 103 98 88 77 66 56 48 48 89 176 204 202 198 198 197 196 199 203 205 204 202 203 203 203 206 207 210 214 214 211 210 208 206 210 211 206 203 207 206 211 226 238 251 262 274 291 308 322 327 328 327 329 331 328 338 4 6 355 348 342 337 332
213 204 188 118 145 163 159 147 162 182 196 245 206 89 71 50 33 45 47 55 80 103 114 115 120 124 111 90 68 48 37 33 23 10 281 236 220 203 198 196 194 195 198 203 206 207 209 211 212 212 213 216 218 216 215 215 212 209 213 213 205 200 202 204 214 225 230 240 255 277 303 318 323 325 324 325 330 333 336 352 359 345 337 336 335 338 335
230 229 181 155 182 190 168 146 133 149 206 272 273 139 102 71 37 43 51 58 76 102 122 129 154 182 122 80 56 35 28 26 21 12 344 275 229 202 194 191 193 196 196 200 207 208 211 217 217 216 219 222 221 218 217 218 216 212 214 214 206 201 201 201 206 210 212 226 246 281 314 318 319 320 318 319 328 332 336 340 331 333 349 343 329 332 324
198 229 220 199 205 112 126 139 132 129 144 179 254 219 117 79 50 46 58 66 70 80 97 112 166 197 101 74 46 27 22 22 23 23 18 3 196 194 189 183 189 201 202 204 207 208 211 217 216 214 217 219 218 215 214 216 216 214 215 213 205 201 201 198 197 201 209 222 237 262 300 311 312 309 300 306 322 327 332 340 340 351 4 341 323 327 321
185 225 235 194 136 79 107 132 135 132 130 204 232 217 140 105 90 66 66 69 65 64 70 69 61 60 69 65 39 23 19 23 28 30 34 51 127 175 184 182 190 205 209 208 210 213 216 219 219 216 215 215 214 213 212 212 212 213 215 210 201 199 199 197 200 207 214 222 232 253 283 302 301 283 276 300 318 324 334 348 346 340 337 325 318 320 321
172 219 235 146 108 103 116 128 130 139 170 216 231 185 120 122 110 84 77 73 66 65 69 70 69 68 67 64 45 27 24 30 30 29 33 42 64 107 179 196 197 205 212 212 213 218 223 224 224 222 218 216 214 212 211 210 210 214 214 205 198 197 198 200 204 211 218 223 230 249 270 282 259 241 265 294 318 334 338 343 345 338 328 323 320 321 325
166 209 236 177 117 98 88 117 133 164 221 222 127 101 113 120 111 94 86 79 73 72 72 74 81 81 73 65 51 37 32 31 26 24 26 26 27 25 289 222 202 200 211 220 218 219 224 225 224 224 221 218 216 212 208 208 211 214 211 201 198 201 203 205 207 208 215 224 235 252 267 249 197 191 212 272 355 0 342 337 345 345 337 329 327 328 332
184 203 219 222 155 104 65 132 152 183 274 117 124 121 116 112 107 98 89 78 74 76 76 77 79 77 69 61 52 44 37 32 27 26 28 26 11 1 1 355 275 212 206 220 223 217 217 217 217 219 218 217 215 211 207 207 210 212 208 202 200 207 211 211 208 208 215 226 240 252 237 185 170 157 146 81 20 4 344 334 338 343 344 339 336 337 341
242 224 211 291 72 96 86 354 105 103 97 111 128 129 117 110 105 97 88 79 71 71 77 78 76 71 65 58 50 44 38 33 27 24 27 29 17 2 7 5 317 252 211 214 222 219 217 211 206 209 210 212 215 212 207 207 208 208 208 203 202 213 218 213 208 213 220 231 245 244 192 164 154 141 129 67 20 0 342 333 335 343 349 349 348 350 349
354 14 60 61 68 98 108 75 84 105 111 113 122 121 113 108 102 92 89 82 70 66 72 76 72 66 59 51 44 39 34 29 23 19 20 24 22 6 358 336 279 244 223 223 223 215 213 207 199 202 205 209 214 212 207 209 212 210 208 204 205 215 217 211 212 219 224 234 242 216 170 158 149 137 126 37 8 357 342 335 341 352 357 357 358 357 347
110 79 77 86 91 101 108 101 101 111 116 113 114 111 105 99 95 91 89 82 71 65 66 68 65 59 53 46 37 31 26 23 18 14 12 14 14 5 344 319 284 258 243 240 231 222 213 202 200 205 206 206 210 209 207 212 218 217 212 210 211 215 214 212 215 222 230 238 226 183 162 157 146 128 117 58 359 1 358 342 349 5 11 6 1 347 342
181 146 102 102 105 109 112 114 112 108 105 103 104 105 102 99 96 91 85 80 73 61 55 55 51 43 39 34 28 21 15 13 12 5 1 4 5 355 331 304 290 280 276 246 228 223 219 208 207 212 209 199 200 205 207 211 217 219 216 215 216 219 219 217 216 221 230 224 192 171 163 154 141 126 123 126 16 22 52 35 0 13 18 10 4 347 342
160 97 108 114 116 114 115 121 121 113 104 101 100 100 103 100 94 88 78 68 61 48 38 36 32 29 28 23 15 10 3 360 0 355 349 349 353 351 335 310 305 305 283 254 222 215 220 215 212 215 209 196 194 202 206 208 214 217 214 213 218 223 224 220 216 219 220 195 176 172 165 151 142 138 135 136 119 84 95 93 24 29 27 17 9 357 346
133 111 133 136 129 127 129 125 121 117 111 108 104 101 101 96 87 84 72 57 49 38 29 25 19 16 17 11 3 360 356 350 347 344 339 335 339 344 338 321 315 301 271 262 240 225 221 210 210 215 208 195 194 203 205 204 208 211 208 210 221 228 225 219 215 214 200 182 176 174 167 158 154 150 143 141 141 143 194 237 98 56 52 42 13 354 352
193 158 160 160 145 142 147 136 123 120 118 114 111 104 98 91 81 76 67 50 35 19 13 18 13 3 359 358 355 355 354 345 336 334 332 326 325 329 330 323 312 282 260 256 247 236 224 209 210 211 207 201 202 206 205 203 203 205 208 217 229 232 220 208 204 196 187 182 179 175 170 166 160 152 153 162 163 171 241 289 43 40 43 55 56 48 32
358 140 158 168 141 125 139 137 127 124 118 114 113 104 93 85 72 64 57 45 32 17 7 7 4 355 351 350 351 351 349 339 331 328 324 318 314 315 317 316 306 282 260 248 241 236 225 216 212 206 207 213 214 213 212 208 206 210 218 226 233 226 207 199 196 186 183 185 182 173 169 169 163 155 169 196 197 204 325 47 51 34 32 37 39 50 54
48 139 150 156 131 130 136 133 127 125 119 112 109 96 83 74 60 54 50 39 35 33 18 6 357 351 349 347 345 346 345 338 331 324 319 312 309 309 310 310 306 293 270 249 244 239 229 220 210 203 209 218 219 220 223 219 216 220 226 230 230 215 199 201 198 184 180 188 187 178 174 176 168 156 171 188 189 80 57 65 54 35 28 26 23 21 23
122 142 139 129 123 129 132 129 126 123 116 110 100 78 68 60 48 49 49 35 34 38 24 8 355 347 345 342 338 338 337 333 330 325 317 310 307 311 315 316 310 300 280 253 241 235 229 222 210 206 212 216 215 220 228 229 228 227 226 229 229 212 198 202 196 182 182 191 191 184 182 179 167 158 168 178 185 161 81 60 45 30 19 15 17 17 14
136 139 137 130 124 126 132 134 132 123 106 95 81 66 62 53 47 52 49 32 34 31 14 2 352 345 344 340 332 328 326 326 328 325 316 308 307 312 317 317 310 300 283 260 244 234 228 224 217 212 211 209 205 208 222 233 236 233 229 229 224 210 205 204 194 186 188 192 190 186 185 179 169 168 171 174 181 178 133 60 32 19 8 2 5 15 20
152 147 144 141 139 145 146 133 127 126 113 99 92 88 72 49 46 53 57 44 33 16 6 1 349 345 347 342 334 330 327 325 325 320 311 306 305 308 312 312 308 300 283 264 251 240 232 227 223 218 210 200 195 195 206 229 236 236 235 231 217 210 212 205 190 186 190 192 190 188 187 181 176 176 179 178 175 167 149 118 64 34 6 350 354 14 42
162 159 158 159 157 159 157 144 136 136 131 120 114 107 80 48 43 41 46 49 25 7 5 359 346 343 345 340 334 332 329 324 320 314 308 305 303 304 309 310 307 297 282 265 252 244 236 229 224 218 206 196 195 197 206 228 237 238 237 229 214 210 208 195 185 188 193 193 193 192 187 183 180 179 182 183 171 155 145 137 123 101 64 344 345 3 27
172 176 182 177 156 156 160 159 154 149 142 129 114 100 65 24 13 6 12 17 10 6 2 347 340 340 337 329 328 329 325 319 314 312 311 310 306 304 307 310 309 297 280 268 252 239 235 232 227 218 205 199 201 203 208 218 226 233 232 223 211 205 197 186 184 191 195 194 194 192 185 184 184 182 184 184 171 159 149 137 131 111 53 26 355 352 2
181 188 191 178 160 161 163 163 162 161 159 146 109 78 21 359 356 352 350 348 348 349 345 338 338 338 331 323 322 321 319 316 313 313 314 314 310 305 306 310 312 302 283 276 261 239 229 230 229 221 207 200 204 207 207 207 208 213 215 207 200 198 192 186 186 191 193 194 196 192 186 186 187 186 187 185 172 160 152 143 138 124 48 34 38 33 11
186 194 196 184 170 171 174 174 175 175 180 192 241 339 335 341 341 335 337 339 338 336 335 335 336 336 332 329 327 323 319 314 311 311 312 310 309 307 305 307 309 301 282 267 256 243 229 224 227 224 214 206 204 204 203 200 199 199 195 191 192 193 187 183 185 190 193 197 199 193 186 186 188 189 190 186 176 162 153 150 142 119 72 45 57 71 53
189 194 196 190 184 188 193 194 192 193 207 231 256 288 301 309 313 314 317 321 322 325 330 333 334 333 330 329 329 327 322 315 310 308 307 305 304 304 303 304 306 302 289 265 247 239 229 222 223 223 219 214 209 204 200 194 188 189 190 189 190 187 181 179 186 193 198 204 203 194 187 184 185 191 192 186 178 166 157 155 152 134 101 78 80 89 81
187 190 199 204 203 203 206 209 210 214 222 234 250 271 289 300 304 304 307 312 317 322 323 323 324 325 324 326 328 325 321 318 316 313 308 300 296 296 299 300 299 297 292 276 253 239 229 221 219 217 214 209 206 206 204 190 179 187 195 194 189 185 181 182 188 196 204 206 199 190 185 182 184 190 191 184 175 169 163 162 161 152 126 102 101 120 118
201 201 211 214 213 213 216 219 224 228 231 238 255 271 285 295 296 295 301 308 312 313 311 311 315 319 321 323 325 323 320 316 313 310 305 298 293 292 293 293 290 288 287 278 259 242 229 219 215 214 208 201 199 204 203 188 178 188 196 194 188 185 184 186 192 199 202 198 191 187 184 181 182 186 186 180 173 169 167 167 167 160 142 125 117 124 125
220 218 224 224 219 220 224 223 226 231 232 236 252 267 275 282 285 289 296 302 305 306 307 309 313 319 320 319 318 320 320 315 308 304 300 296 293 292 289 289 288 284 280 275 261 247 236 220 211 210 206 197 195 201 200 188 182 189 195 192 188 186 187 193 199 199 192 187 188 187 183 180 182 183 180 176 173 170 170 172 172 166 152 138 128 129 127
222 223 228 230 226 224 227 227 227 231 235 240 251 258 263 272 282 288 294 298 301 304 306 308 310 314 316 314 311 312 314 313 309 305 299 293 292 289 284 284 284 277 275 275 263 250 241 227 213 209 206 199 197 199 197 188 185 190 195 194 191 190 194 200 201 194 188 186 186 183 178 177 180 181 177 174 172 172 175 177 173 166 158 146 138 136 127
224 222 226 229 229 229 234 236 236 239 244 250 255 260 266 274 281 286 291 297 301 303 302 301 303 306 308 307 307 306 307 308 307 304 297 292 290 285 279 279 279 274 272 271 262 247 238 228 215 208 203 200 199 199 196 192 189 190 194 197 196 197 200 201 195 190 188 186 182 177 175 177 180 180 178 177 176 176 178 180 175 167 160 153 146 139 129
219 213 215 223 228 230 234 238 239 242 247 252 258 265 271 276 281 287 293 298 300 300 295 295 299 301 300 301 305 306 304 300 299 298 296 291 286 281 276 274 272 266 264 265 261 247 236 226 213 204 201 201 201 200 197 195 192 191 194 200 202 202 200 195 189 187 187 184 178 174 175 178 181 181 181 180 180 179 179 178 175 169 161 158 154 144 132
215 208 210 217 221 222 225 232 237 242 246 253 262 269 273 278 283 288 293 296 295 293 294 296 297 298 295 296 301 304 302 297 293 294 292 287 282 278 274 271 267 262 261 262 258 247 239 226 211 202 201 201 202 201 199 196 192 192 196 201 203 199 192 186 185 186 185 182 177 174 175 178 182 183 184 182 180 179 180 179 173 166 162 160 157 149 140
206 203 203 202 204 209 217 226 235 243 249 256 263 268 274 280 282 284 288 291 289 288 292 295 295 295 294 293 296 298 298 295 292 291 289 285 281 278 276 272 268 264 264 262 252 242 238 226 211 204 203 201 201 203 201 195 191 192 196 200 200 193 186 183 185 186 184 180 176 174 174 179 183 183 183 181 177 176 180 178 169 162 163 165 160 152 147
185 187 186 186 192 204 214 222 233 245 252 258 264 269 273 278 279 278 281 284 285 288 295 298 297 295 294 293 293 294 295 293 290 288 285 282 280 278 276 273 271 269 266 257 244 241 238 225 210 205 202 199 201 204 200 192 189 192 196 198 194 189 186 185 183 182 180 178 176 174 175 178 181 180 178 177 175 175 176 174 167 161 163 165 161 156 154
172 175 178 183 192 204 213 221 231 243 254 265 273 277 279 280 280 281 285 288 290 295 301 304 306 307 307 304 299 295 295 293 290 285 280 277 275 273 272 270 269 268 266 255 243 242 240 225 210 203 200 199 202 203 196 188 188 192 195 195 191 187 186 185 181 178 178 177 175 176 177 178 178 177 173 172 172 173 172 170 166 163 163 163 160 158 157
167 169 171 176 182 188 200 216 229 246 272 288 295 297 298 297 296 296 295 294 296 301 305 308 311 312 311 305 297 292 292 292 289 286 282 278 273 269 268 266 261 258 260 259 251 242 236 224 212 205 200 200 201 197 190 188 191 193 194 194 191 186 183 181 177 176 178 177 175 177 178 178 178 177 174 170 171 172 171 168 166 163 164 164 160 158 160
160 159 158 159 160 160 163 162 143 348 316 316 315 314 313 311 308 305 302 300 302 304 306 307 309 307 303 298 292 290 291 290 289 289 287 284 279 274 272 270 263 253 251 253 251 240 230 225 218 209 201 198 197 193 188 189 193 193 193 194 191 184 179 178 177 177 178 178 177 178 178 178 179 179 176 173 173 173 169 167 167 167 166 165 163 163 164
153 151 149 145 135 123 111 97 84 50 359 341 333 328 323 318 313 309 305 303 302 302 301 301 301 299 297 295 291 289 287 285 284 283 282 280 278 276 274 273 270 262 253 250 247 239 228 224 223 215 205 196 193 191 189 190 192 192 192 192 189 182 178 177 178 178 179 179 178 178 179 179 180 180 179 177 176 173 169 168 170 171 169 167 167 168 167
151 149 147 139 125 113 101 83 52 16 1 354 344 333 324 316 310 305 299 295 295 295 294 294 294 293 293 294 294 293 293 291 287 283 280 276 275 275 273 267 263 260 256 252 247 237 226 223 223 217 206 196 192 191 191 191 191 192 192 190 186 181 178 178 179 179 180 181 180 179 180 180 180 180 181 179 175 173 173 173 173 175 175 172 172 174 174
150 152 152 145 128 110 78 44 23 8 358 350 338 329 323 315 307 302 297 293 292 292 293 293 293 293 294 296 297 295 294 294 292 291 288 284 281 281 279 271 261 254 252 251 245 233 224 225 224 215 203 196 193 192 191 191 192 194 193 190 185 180 177 178 180 181 182 184 184 182 182 182 181 181 182 181 176 176 180 180 176 178 182 182 181 183 182
151 153 154 144 117 77 35 17 7 356 345 336 329 326 325 320 313 307 303 299 297 298 298 298 298 299 300 300 298 294 292 292 293 293 293 290 285 282 281 277 267 255 252 251 245 232 223 225 223 212 200 196 196 195 192 191 193 195 193 190 186 182 179 180 183 183 185 188 188 185 184 184 183 182 183 182 180 182 187 185 181 183 188 189 189 190 187
150 145 141 128 76 24 5 357 350 340 333 330 328 326 325 325 323 319 314 310 309 310 310 309 309 309 308 304 299 295 293 293 293 293 293 290 283 277 275 273 265 256 253 252 246 233 224 222 219 209 198 195 196 196 193 191 194 196 194 190 187 183 180 181 184 185 187 189 189 187 186 185 184 184 184 184 184 188 193 191 187 191 196 195 193 193 190
138 128 121 72 354 347 344 342 339 334 332 334 335 333 333 333 332 327 324 322 321 320 321 321 321 320 318 315 310 303 298 294 292 293 292 289 282 275 272 269 263 255 249 246 242 235 226 219 213 205 198 194 195 196 195 193 195 197 195 191 188 184 182 183 185 187 188 188 188 187 186 186 187 187 187 186 189 196 198 193 194 203 210 204 197 195 192
128 115 27 335 339 343 345 346 346 342 341 344 346 341 336 336 336 333 330 330 328 328 329 331 330 327 326 326 322 315 305 296 293 293 292 288 282 275 272 268 261 251 243 239 238 234 227 221 215 207 199 194 193 195 195 195 196 197 195 192 189 186 183 184 186 187 187 188 188 188 188 189 190 191 191 193 199 205 203 199 204 216 219 208 199 198 194
100 354 339 345 359 0 357 357 358 352 347 348 349 345 342 345 346 343 341 340 338 335 333 333 332 331 331 330 328 323 315 305 298 294 291 287 282 278 275 270 261 247 237 233 233 230 227 224 219 208 197 192 193 196 196 195 196 197 196 193 189 187 185 185 187 189 190 192 192 192 193 195 194 194 195 200 205 208 207 207 213 220 218 207 201 200 198
Height
1511 1509 1509 1507 1509 1513 1514 1514 1515 1513 1514 1516 1518 1518 1517 1516 1523 1531 1530 1525 1525 1523 1520 1519 1517 1516 1518 1522 1524 1524 1525 1527 1528 1530 1532 1533 1535 1535 1537 1538 1539 1540 1541 1542 1543 1543 1544 1544 1544 1544 1544 1545 1546 1547 1548 1548 1549 1549 1550 1551 1552 1553 1554 1555 1555 1555 1556 1556 1556 1556 1556 1555 1555 1555 1554 1554 1553 1552 1551 1551 1550 1550 1549 1549 1548 1548 1548
1514 1511 1510 1509 1510 1514 1515 1516 1516 1514 1514 1516 1517 1518 1517 1517 1521 1523 1524 1526 1524 1521 1520 1519 1517 1518 1520 1522 1524 1524 1525 1527 1529 1531 1532 1533 1534 1535 1536 1538 1539 1540 1541 1541 1542 1543 1543 1544 1544 1544 1545 1545 1546 1547 1547 1548 1548 1549 1549 1550 1551 1552 1553 1554 1554 1555 1555 1555 1556 1556 1556 1556 1555 1555 1554 1554 1553 1552 1551 1550 1550 1549 1549 1549 1549 1548 1549
1519 1514 1511 1510 1510 1514 1517 1518 1517 1515 1516 1517 1517 1519 1519 1518 1520 1519 1520 1525 1524 1520 1518 1518 1518 1520 1520 1521 1523 1524 1526 1528 1529 1531 1532 1532 1534 1535 1536 1537 1538 1539 1540 1541 1541 1542 1542 1543 1544 1544 1545 1546 1546 1547 1547 1547 1548 1548 1549 1550 1550 1551 1552 1553 1554 1554 1555 1555 1556 1556 1556 1556 1555 1555 1554 1554 1553 1552 1551 1550 1550 1550 1550 1550 1549 1549 1549
1524 1516 1513 1514 1511 1512 1518 1522 1522 1519 1520 1521 1522 1522 1522 1523 1524 1521 1520 1525 1526 1522 1519 1518 1518 1519 1520 1521 1523 1525 1527 1528 1529 1530 1531 1532 1534 1535 1536 1537 1537 1538 1539 1539 1540 1541 1541 1542 1543 1544 1545 1546 1546 1546 1546 1547 1548 1548 1549 1550 1550 1551 1552 1553 1554 1554 1555 1556 1556 1556 1556 1556 1555 1555 1554 1554 1553 1552 1551 1551 1550 1550 1550 1550 1550 1550 1549
1525 1518 1515 1516 1515 1519 1527 1527 1524 1523 1522 1523 1523 1523 1523 1523 1523 1524 1526 1527 1525 1521 1519 1519 1518 1518 1520 1522 1523 1526 1528 1528 1529 1531 1531 1532 1533 1534 1535 1536 1536 1537 1537 1538 1539 1540 1540 1541 1542 1543 1544 1544 1545 1545 1545 1546 1547 1548 1550 1550 1551 1551 1552 1553 1554 1555 1556 1556 1556 1557 1557 1556 1556 1555 1555 1554 1554 1553 1552 1551 1551 1551 1551 1551 1550 1550 1550
1524 1520 1514 1516 1523 1533 1536 1526 1519 1521 1522 1523 1526 1527 1525 1523 1521 1523 1524 1523 1521 1520 1520 1520 1519 1519 1521 1524 1525 1527 1528 1528 1529 1530 1531 1532 1532 1533 1534 1534 1535 1536 1536 1537 1538 1538 1539 1540 1541 1542 1543 1543 1544 1544 1544 1545 1546 1547 1548 1549 1550 1551 1552 1553 1554 1555 1556 1557 1557 1557 1557 1556 1556 1556 1555 1555 1554 1553 1553 1552 1552 1551 1551 1551 1550 1550 1550
1518 1518 1517 1529 1539 1536 1527 1520 1517 1519 1520 1520 1524 1526 1525 1523 1522 1521 1522 1521 1520 1520 1521 1521 1520 1521 1523 1525 1526 1528 1529 1529 1529 1530 1530 1531 1531 1532 1532 1532 1533 1534 1535 1536 1537 1537 1538 1539 1539 1540 1541 1542 1542 1543 1543 1544 1544 1545 1546 1548 1549 1550 1551 1553 1554 1555 1556 1557 1558 1557 1557 1557 1556 1556 1555 1555 1554 1554 1553 1553 1552 1551 1551 1551 1551 1550 1550
1518 1521 1525 1538 1543 1530 1520 1520 1520 1519 1521 1521 1524 1528 1528 1525 1523 1523 1522 1521 1519 1520 1522 1523 1522 1523 1524 1526 1528 1529 1529 1529 1529 1530 1530 1530 1530 1531 1531 1532 1532 1533 1534 1535 1535 1536 1537 1537 1538 1539 1540 1541 1542 1542 1543 1544 1545 1545 1546 1547 1548 1550 1551 1552 1554 1555 1556 1557 1557 1557 1557 1557 1556 1556 1555 1554 1554 1554 1553 1553 1552 1552 1552 1551 1551 1550 1549
1520 1523 1525 1530 1534 1530 1526 1524 1520 1518 1521 1521 1522 1530 1533 1526 1523 1524 1523 1521 1520 1521 1523 1524 1524 1523 1523 1525 1528 1530 1529 1529 1529 1529 1529 1529 1529 1530 1530 1531 1532 1532 1533 1533 1534 1535 1536 1537 1538 1539 1540 1540 1541 1542 1543 1544 1545 1546 1546 1547 1548 1550 1551 1552 1553 1554 1555 1556 1556 1557 1556 1556 1556 1555 1555 1554 1554 1554 1554 1554 1553 1552 1552 1551 1550 1550 1549
1518 1521 1526 1531 1536 1536 1528 1522 1518 1515 1518 1517 1516 1526 1534 1528 1524 1525 1523 1522 1522 1522 1523 1524 1524 1524 1526 1528 1529 1530 1530 1530 1529 1529 1528 1528 1528 1528 1529 1530 1530 1531 1532 1532 1533 1535 1535 1536 1537 1538 1539 1539 1540 1541 1542 1543 1544 1545 1546 1547 1549 1550 1551 1552 1553 1554 1554 1554 1555 1555 1556 1556 1555 1554 1554 1554 1554 1554 1554 1554 1553 1552 1551 1551 1550 1549 1548
1519 1523 1529 1531 1534 1532 1522 1517 1516 1515 1519 1517 1516 1528 1537 1531 1525 1526 1524 1523 1524 1523 1524 1524 1523 1526 1532 1534 1531 1531 1532 1531 1530 1529 1529 1528 1528 1528 1529 1529 1530 1531 1531 1532 1533 1533 1534 1534 1535 1535 1537 1538 1539 1540 1541 1542 1543 1544 1545 1547 1548 1549 1550 1551 1551 1551 1551 1552 1552 1552 1553 1553 1553 1553 1553 1554 1554 1554 1554 1554 1553 1552 1552 1552 1550 1549 1548
1520 1523 1525 1522 1525 1526 1519 1515 1516 1517 1518 1518 1524 1542 1545 1531 1526 1529 1526 1525 1527 1525 1525 1525 1524 1528 1534 1534 1532 1533 1533 1532 1531 1530 1529 1529 1529 1529 1529 1530 1530 1531 1531 1531 1531 1532 1532 1533 1533 1534 1535 1536 1538 1539 1540 1541 1542 1543 1544 1545 1546 1548 1549 1549 1549 1549 1549 1550 1550 1550 1550 1550 1551 1552 1552 1552 1553 1553 1553 1553 1553 1552 1552 1551 1550 1549 1548
1519 1523 1523 1520 1522 1523 1517 1515 1516 1517 1519 1523 1534 1545 1540 1527 1527 1531 1528 1528 1529 1528 1528 1528 1528 1531 1534 1534 1534 1534 1533 1532 1532 1531 1530 1530 1529 1530 1530 1530 1530 1530 1530 1530 1530 1531 1532 1532 1533 1534 1535 1536 1537 1538 1539 1540 1542 1542 1543 1544 1545 1546 1547 1547 1547 1548 1548 1549 1549 1549 1549 1549 1550 1551 1551 1551 1551 1552 1553 1553 1552 1551 1551 1550 1550 1549 1547
1517 1520 1520 1522 1525 1522 1517 1517 1518 1518 1523 1531 1535 1533 1529 1527 1530 1531 1529 1531 1531 1530 1531 1531 1532 1534 1535 1534 1535 1534 1533 1533 1533 1532 1531 1531 1530 1530 1530 1529 1529 1529 1529 1530 1530 1531 1531 1532 1533 1534 1535 1536 1537 1538 1539 1540 1541 1542 1543 1543 1544 1545 1545 1545 1546 1547 1548 1548 1548 1548 1548 1548 1549 1549 1550 1550 1551 1551 1552 1552 1551 1550 1550 1549 1549 1548 1547
1518 1520 1523 1528 1530 1524 1518 1519 1520 1520 1525 1529 1528 1526 1527 1529 1530 1530 1532 1533 1532 1532 1533 1533 1534 1535 1535 1535 1535 1534 1534 1534 1533 1532 1532 1531 1531 1530 1529 1529 1529 1529 1529 1530 1530 1531 1531 1531 1532 1533 1534 1535 1536 1537 1538 1539 1540 1541 1542 1542 1543 1544 1544 1545 1546 1547 1547 1547 1548 1548 1547 1547 1548 1548 1549 1550 1550 1550 1551 1551 1551 1550 1549 1549 1548 1548 1547
1519 1524 1525 1527 1526 1521 1519 1521 1522 1521 1523 1524 1524 1526 1528 1529 1530 1532 1533 1533 1534 1534 1534 1534 1535 1536 1535 1536 1535 1535 1534 1534 1533 1533 1532 1531 1531 1530 1529 1530 1529 1529 1529 1530 1530 1530 1531 1531 1532 1532 1533 1534 1536 1537 1538 1538 1539 1540 1541 1541 1542 1542 1543 1544 1545 1546 1547 1547 1548 1548 1546 1546 1547 1548 1549 1549 1549 1550 1550 1551 1550 1549 1549 1548 1548 1548 1547
1518 1521 1522 1522 1521 1520 1520 1521 1521 1522 1523 1525 1526 1527 1528 1530 1532 1533 1533 1534 1535 1535 1535 1536 1536 1536 1536 1536 1535 1535 1535 1534 1533 1532 1532 1531 1531 1530 1530 1530 1529 1528 1529 1529 1530 1530 1530 1530 1531 1531 1532 1534 1535 1536 1537 1538 1539 1540 1540 1541 1541 1541 1542 1544 1545 1545 1546 1547 1548 1547 1546 1546 1546 1547 1548 1549 1549 1549 1549 1550 1550 1549 1548 1548 1548 1548 1548
1517 1519 1520 1520 1520 1521 1522 1522 1523 1524 1525 1526 1527 1528 1529 1531 1533 1533 1534 1535 1536 1536 1537 1537 1536 1537 1537 1536 1535 1535 1534 1534 1533 1532 1532 1531 1530 1530 1530 1529 1529 1528 1529 1529 1529 1529 1529 1530 1530 1530 1531 1533 1534 1535 1536 1537 1538 1539 1540 1541 1541 1541 1542 1543 1544 1545 1546 1547 1547 1547 1547 1547 1547 1547 1548 1549 1549 1549 1549 1550 1550 1549 1549 1549 1549 1549 1548
1520 1522 1521 1520 1522 1523 1523 1524 1525 1526 1526 1528 1529 1530 1531 1532 1533 1534 1535 1535 1536 1537 1537 1536 1536 1537 1536 1535 1535 1535 1534 1534 1534 1533 1532 1531 1530 1530 1529 1529 1528 1528 1528 1529 1529 1530 1530 1530 1530 1530 1531 1532 1533 1534 1535 1536 1538 1539 1540 1541 1541 1541 1542 1543 1545 1546 1546 1547 1548 1548 1547 1547 1547 1547 1548 1549 1550 1549 1550 1551 1550 1549 1549 1549 1549 1549 1549
1521 1522 1521 1521 1523 1524 1524 1525 1526 1527 1528 1529 1530 1531 1532 1533 1534 1535 1535 1535 1536 1536 1535 1535 1536 1535 1535 1535 1534 1534 1534 1534 1533 1533 1532 1531 1530 1530 1529 1528 1528 1528 1528 1529 1529 1530 1530 1530 1530 1530 1531 1531 1532 1533 1534 1536 1537 1538 1539 1540 1540 1540 1541 1543 1544 1546 1547 1547 1549 1549 1548 1548 1548 1548 1549 1550 1550 1550 1551 1551 1551 1550 1550 1549 1549 1549 1549
1522 1522 1522 1522 1524 1526 1526 1526 1527 1528 1529 1530 1531 1532 1533 1534 1534 1535 1535 1535 1535 1535 1535 1535 1534 1534 1534 1534 1533 1534 1534 1533 1533 1532 1532 1530 1530 1529 1529 1528 1528 1528 1528 1528 1528 1529 1529 1529 1529 1530 1530 1531 1532 1533 1534 1535 1536 1537 1539 1539 1539 1540 1541 1543 1544 1546 1547 1548 1549 1549 1548 1547 1547 1547 1548 1550 1550 1550 1550 1549 1549 1549 1549 1549 1549 1549 1549
1521 1519 1520 1522 1523 1524 1525 1527 1528 1529 1530 1531 1532 1533 1533 1534 1535 1535 1535 1535 1534 1534 1534 1534 1534 1534 1534 1533 1533 1533 1533 1533 1532 1531 1531 1530 1529 1528 1528 1528 1528 1527 1527 1527 1527 1528 1528 1528 1528 1529 1530 1531 1531 1532 1533 1533 1535 1537 1537 1538 1539 1540 1541 1543 1544 1545 1547 1548 1549 1549 1548 1547 1546 1547 1547 1549 1549 1549 1548 1548 1548 1547 1547 1547 1547 1547 1548
1516 1514 1517 1520 1520 1521 1524 1527 1528 1530 1530 1531 1532 1533 1534 1534 1534 1534 1534 1534 1534 1534 1534 1534 1534 1534 1533 1533 1533 1533 1532 1532 1531 1530 1530 1529 1528 1527 1527 1527 1527 1527 1527 1527 1526 1527 1527 1527 1527 1529 1530 1530 1530 1530 1531 1532 1534 1535 1536 1537 1539 1540 1541 1543 1543 1545 1547 1548 1548 1548 1548 1547 1546 1546 1547 1548 1548 1548 1548 1547 1547 1547 1546 1546 1546 1546 1547
1514 1515 1519 1521 1521 1522 1525 1527 1528 1529 1531 1532 1532 1533 1533 1533 1533 1533 1534 1534 1534 1535 1535 1534 1534 1533 1533 1533 1532 1532 1532 1531 1530 1530 1529 1528 1527 1527 1526 1526 1526 1526 1526 1526 1526 1526 1526 1526 1527 1528 1529 1529 1528 1529 1530 1532 1533 1534 1535 1536 1538 1539 1541 1542 1542 1543 1546 1547 1547 1547 1547 1546 1546 1546 1547 1548 1548 1547 1547 1547 1546 1546 1546 1546 1546 1546 1546
1517 1518 1519 1521 1522 1524 1526 1527 1528 1529 1530 1531 1531 1532 1532 1532 1532 1533 1534 1534 1534 1534 1534 1534 1534 1533 1532 1532 1532 1531 1531 1531 1530 1529 1528 1527 1527 1526 1525 1525 1525 1525 1524 1525 1525 1525 1525 1525 1526 1527 1528 1527 1528 1529 1530 1531 1532 1533 1534 1535 1537 1538 1540 1540 1540 1542 1545 1546 1546 1547 1546 1546 1546 1546 1547 1548 1548 1547 1546 1546 1546 1546 1546 1546 1546 1546 1545
1518 1519 1520 1522 1524 1525 1526 1527 1528 1529 1529 1530 1530 1531 1531 1532 1533 1533 1534 1534 1534 1534 1534 1534 1533 1532 1532 1532 1531 1531 1530 1530 1529 1528 1527 1527 1526 1525 1525 1525 1524 1524 1524 1523 1523 1523 1523 1524 1524 1525 1526 1526 1527 1528 1529 1530 1531 1532 1533 1535 1536 1537 1538 1539 1539 1541 1543 1544 1545 1546 1546 1546 1546 1547 1548 1549 1549 1548 1547 1546 1546 1546 1546 1546 1546 1546 1545
1519 1520 1521 1522 1523 1525 1526 1527 1528 1529 1529 1530 1531 1532 1532 1532 1533 1533 1534 1534 1533 1533 1533 1533 1533 1532 1532 1531 1531 1530 1530 1529 1528 1528 1527 1526 1525 1524 1524 1523 1523 1522 1522 1522 1521 1521 1521 1522 1523 1524 1525 1525 1526 1527 1528 1529 1530 1531 1532 1533 1535 1536 1537 1537 1538 1540 1542 1544 1544 1545 1545 1545 1546 1547 1548 1548 1548 1548 1547 1547 1547 1547 1547 1547 1546 1545 1545
1519 1521 1522 1522 1523 1525 1526 1527 1528 1529 1530 1530 1531 1532 1533 1533 1533 1533 1534 1534 1533 1533 1533 1533 1532 1532 1531 1531 1530 1529 1529 1528 1527 1527 1526 1524 1523 1523 1522 1522 1521 1521 1520 1520 1520 1520 1520 1521 1522 1522 1523 1524 1524 1525 1527 1528 1529 1530 1531 1532 1533 1534 1535 1536 1538 1540 1542 1543 1543 1544 1544 1545 1546 1547 1548 1548 1548 1548 1547 1547 1547 1548 1548 1548 1546 1546 1545
1520 1521 1521 1522 1523 1524 1525 1526 1527 1528 1529 1530 1531 1531 1532 1533 1533 1533 1533 1533 1533 1533 1532 1532 1532 1531 1531 1531 1530 1529 1528 1527 1526 1525 1524 1523 1522 1521 1521 1520 1520 1519 1518 1518 1518 1518 1519 1520 1520 1521 1522 1523 1523 1524 1525 1526 1527 1528 1529 1530 1532 1533 1534 1535 1537 1539 1541 1542 1543 1543 1544 1544 1546 1547 1547 1548 1548 1548 1547 1547 1547 1548 1548 1547 1547 1546 1546
1520 1520 1521 1522 1523 1524 1525 1526 1527 1528 1529 1529 1530 1530 1531 1531 1532 1532 1532 1532 1532 1532 1532 1531 1531 1530 1530 1529 1528 1527 1526 1525 1524 1523 1522 1521 1520 1519 1519 1518 1518 1518 1518 1517 1517 1517 1518 1518 1518 1520 1521 1522 1521 1523 1524 1525 1526 1526 1527 1529 1531 1532 1533 1534 1536 1538 1540 1541 1542 1542 1543 1544 1545 1547 1547 1547 1547 1547 1547 1547 1547 1548 1548 1547 1547 1547 1547
1519 1520 1521 1522 1523 1524 1525 1526 1527 1527 1528 1528 1529 1529 1530 1530 1531 1531 1531 1531 1531 1531 1530 1530 1529 1529 1528 1527 1526 1525 1524 1523 1522 1521 1520 1520 1518 1518 1517 1517 1516 1517 1517 1516 1516 1516 1516 1516 1517 1518 1519 1520 1520 1522 1524 1525 1525 1525 1527 1529 1530 1531 1532 1533 1536 1537 1539 1540 1541 1542 1542 1543 1545 1546 1547 1547 1547 1547 1546 1547 1547 1548 1548 1547 1547 1547 1547
1519 1520 1521 1522 1523 1524 1525 1526 1526 1527 1528 1528 1528 1529 1529 1529 1530 1530 1530 1530 1530 1529 1529 1528 1528 1527 1526 1525 1524 1523 1522 1521 1520 1519 1518 1518 1517 1516 1515 1515 1514 1514 1514 1514 1514 1514 1514 1514 1515 1515 1516 1518 1519 1520 1522 1523 1523 1525 1526 1527 1528 1529 1531 1533 1535 1537 1538 1539 1540 1541 1542 1543 1545 1546 1546 1547 1547 1546 1546 1547 1547 1548 1548 1547 1547 1547 1546
1518 1519 1520 1521 1522 1523 1524 1525 1525 1526 1527 1528 1528 1528 1528 1528 1528 1528 1528 1528 1528 1527 1527 1527 1526 1525 1525 1524 1523 1522 1521 1519 1518 1517 1516 1516 1515 1514 1513 1513 1512 1512 1512 1511 1512 1512 1512 1512 1513 1513 1514 1515 1516 1518 1519 1520 1522 1523 1525 1526 1527 1529 1531 1532 1534 1536 1537 1538 1539 1540 1541 1542 1544 1545 1546 1546 1546 1546 1546 1547 1547 1548 1547 1547 1547 1546 1546
1517 1518 1518 1519 1520 1522 1523 1524 1525 1526 1526 1527 1527 1527 1527 1527 1527 1527 1527 1526 1526 1526 1526 1525 1524 1524 1523 1522 1521 1520 1519 1518 1517 1516 1515 1514 1514 1513 1512 1511 1510 1510 1509 1509 1509 1509 1510 1510 1511 1511 1512 1513 1514 1516 1517 1518 1519 1521 1523 1524 1526 1528 1529 1531 1533 1535 1536 1537 1539 1539 1540 1542 1543 1544 1545 1545 1545 1546 1546 1546 1547 1547 1547 1547 1546 1546 1545
1516 1517 1517 1518 1519 1521 1522 1523 1524 1524 1525 1526 1526 1526 1526 1526 1526 1525 1525 1525 1524 1524 1523 1523 1522 1522 1521 1520 1519 1518 1518 1516 1515 1514 1513 1513 1512 1511 1510 1509 1509 1508 1507 1507 1507 1507 1507 1508 1508 1509 1509 1510 1512 1514 1515 1516 1517 1519 1521 1523 1525 1526 1528 1530 1532 1534 1535 1537 1537 1538 1539 1541 1542 1543 1544 1544 1545 1545 1546 1546 1547 1547 1547 1547 1546 1546 1546
1514 1515 1516 1517 1518 1519 1520 1522 1522 1523 1523 1524 1524 1525 1525 1525 1524 1524 1523 1523 1522 1522 1521 1521 1520 1520 1519 1518 1518 1517 1516 1515 1513 1512 1511 1511 1510 1509 1508 1507 1507 1506 1506 1505 1505 1504 1505 1505 1506 1506 1507 1508 1510 1511 1513 1514 1515 1518 1520 1522 1523 1525 1527 1529 1531 1533 1534 1535 1536 1537 1539 1540 1541 1542 1543 1543 1544 1545 1545 1546 1546 1547 1547 1547 1547 1547 1547
1511 1513 1514 1515 1516 1518 1519 1520 1520 1521 1522 1522 1522 1523 1523 1523 1522 1522 1522 1521 1520 1520 1519 1519 1518 1518 1517 1516 1515 1514 1514 1512 1511 1510 1509 1509 1508 1507 1506 1506 1505 1505 1504 1504 1503 1503 1503 1503 1503 1504 1506 1507 1508 1510 1511 1513 1514 1517 1519 1521 1522 1524 1525 1527 1529 1531 1533 1534 1535 1536 1537 1539 1540 1541 1542 1543 1544 1544 1545 1546 1546 1546 1547 1547 1547 1547 1547
1510 1511 1512 1513 1514 1516 1517 1518 1518 1519 1520 1520 1520 1521 1521 1521 1521 1520 1520 1519 1518 1518 1517 1517 1517 1516 1515 1514 1513 1512 1512 1511 1510 1509 1508 1507 1506 1505 1504 1504 1503 1503 1502 1502 1501 1501 1501 1501 1502 1503 1504 1505 1507 1508 1510 1511 1513 1515 1517 1519 1521 1522 1524 1526 1528 1530 1531 1532 1534 1535 1537 1539 1540 1541 1541 1542 1543 1544 1545 1545 1545 1546 1546 1546 1547 1547 1547
1509 1510 1511 1511 1513 1514 1515 1516 1517 1517 1518 1518 1519 1519 1519 1519 1518 1518 1518 1517 1517 1516 1515 1515 1515 1514 1513 1513 1511 1510 1509 1509 1508 1507 1506 1505 1504 1503 1502 1501 1500 1500 1499 1499 1499 1499 1499 1499 1499 1500 1501 1503 1505 1506 1507 1509 1511 1513 1515 1517 1519 1521 1523 1525 1527 1528 1529 1530 1532 1534 1536 1538 1539 1540 1541 1542 1542 1543 1544 1544 1544 1545 1546 1546 1546 1547 1547
1507 1508 1509 1510 1511 1513 1514 1514 1515 1516 1516 1516 1517 1517 1517 1517 1516 1516 1516 1515 1515 1514 1514 1513 1512 1512 1511 1510 1509 1508 1508 1507 1506 1505 1504 1503 1501 1500 1499 1498 1497 1497 1496 1496 1497 1497 1497 1497 1497 1498 1500 1501 1503 1504 1505 1507 1510 1512 1513 1515 1517 1519 1521 1523 1525 1526 1527 1529 1531 1533 1535 1537 1539 1540 1540 1541 1541 1542 1543 1543 1543 1544 1545 1546 1546 1546 1547
1506 1507 1508 1509 1510 1511 1512 1513 1514 1514 1514 1515 1515 1515 1515 1514 1514 1514 1514 1514 1513 1513 1511 1510 1510 1509 1508 1508 1507 1506 1505 1504 1503 1503 1502 1501 1499 1498 1497 1496 1496 1495 1494 1494 1494 1494 1494 1495 1496 1497 1498 1499 1501 1502 1503 1506 1508 1511 1512 1513 1515 1518 1520 1521 1523 1524 1525 1527 1530 1532 1534 1536 1538 1539 1539 1540 1540 1541 1542 1542 1543 1544 1544 1545 1545 1546 1546
1505 1506 1507 1508 1509 1510 1511 1512 1512 1513 1513 1513 1513 1513 1513 1513 1512 1512 1512 1512 1511 1510 1509 1508 1508 1507 1506 1505 1504 1503 1502 1502 1501 1500 1499 1498 1497 1496 1495 1494 1494 1494 1492 1491 1491 1492 1492 1493 1494 1494 1495 1497 1499 1500 1502 1504 1507 1509 1510 1512 1514 1516 1518 1520 1522 1523 1524 1526 1529 1531 1533 1535 1537 1537 1538 1539 1540 1540 1541 1542 1542 1543 1543 1544 1545 1545 1546
1505 1505 1506 1508 1508 1509 1510 1511 1511 1511 1512 1512 1512 1512 1512 1511 1511 1510 1510 1509 1509 1508 1507 1506 1506 1504 1503 1502 1501 1501 1500 1499 1498 1497 1496 1495 1495 1493 1492 1491 1491 1491 1490 1489 1489 1489 1490 1491 1491 1492 1493 1495 1497 1499 1501 1503 1505 1507 1509 1510 1512 1515 1517 1519 1521 1522 1524 1525 1528 1529 1531 1533 1535 1536 1537 1538 1539 1540 1540 1541 1541 1542 1543 1543 1544 1545 1546
1504 1505 1506 1507 1508 1508 1509 1510 1510 1511 1511 1511 1511 1510 1510 1510 1509 1509 1508 1508 1507 1506 1505 1505 1504 1502 1502 1500 1499 1499 1498 1497 1496 1495 1494 1492 1491 1490 1489 1488 1487 1487 1487 1487 1487 1487 1488 1488 1489 1489 1491 1493 1495 1498 1500 1502 1503 1505 1507 1508 1511 1513 1515 1517 1519 1521 1523 1524 1526 1528 1530 1532 1534 1535 1536 1537 1538 1538 1539 1540 1541 1541 1542 1542 1543 1544 1545
1504 1505 1506 1506 1507 1508 1508 1509 1509 1510 1510 1510 1509 1509 1509 1508 1508 1507 1506 1506 1505 1504 1503 1502 1501 1500 1499 1498 1497 1496 1495 1494 1493 1492 1491 1490 1489 1488 1487 1486 1485 1484 1484 1484 1484 1485 1486 1486 1487 1487 1489 1491 1494 1496 1498 1500 1502 1503 1505 1506 1509 1511 1513 1516 1518 1520 1522 1523 1525 1527 1528 1530 1532 1533 1535 1536 1537 1537 1538 1539 1540 1540 1541 1541 1542 1543 1544
1504 1505 1505 1506 1507 1507 1508 1508 1509 1509 1509 1508 1508 1508 1507 1507 1506 1505 1504 1504 1503 1501 1501 1500 1498 1497 1496 1495 1494 1492 1491 1490 1489 1488 1487 1486 1485 1484 1483 1483 1483 1482 1482 1482 1482 1482 1483 1484 1484 1485 1487 1489 1492 1494 1496 1498 1500 1502 1503 1505 1507 1509 1512 1514 1516 1518 1520 1522 1524 1525 1527 1529 1530 1532 1533 1534 1535 1536 1537 1538 1539 1539 1540 1541 1541 1542 1543
1503 1504 1505 1505 1506 1506 1507 1507 1507 1507 1507 1507 1507 1506 1506 1505 1504 1503 1502 1501 1500 1499 1498 1497 1496 1495 1493 1492 1491 1490 1488 1487 1486 1485 1484 1483 1481 1480 1479 1479 1479 1479 1479 1479 1479 1479 1480 1481 1482 1483 1485 1487 1489 1492 1494 1496 1498 1500 1501 1503 1506 1508 1510 1512 1514 1517 1519 1521 1522 1524 1525 1527 1529 1530 1531 1533 1534 1535 1535 1536 1538 1539 1539 1539 1540 1541 1542
1503 1504 1504 1505 1505 1506 1506 1506 1506 1506 1506 1506 1505 1505 1504 1503 1502 1501 1500 1499 1498 1497 1496 1495 1494 1493 1491 1490 1489 1487 1486 1484 1483 1481 1481 1480 1479 1477 1476 1476 1476 1476 1476 1476 1476 1476 1477 1478 1479 1480 1482 1485 1487 1489 1491 1493 1496 1498 1500 1502 1504 1507 1509 1511 1513 1515 1517 1519 1520 1522 1524 1525 1527 1528 1530 1531 1532 1533 1534 1535 1537 1538 1538 1538 1539 1540 1541
1503 1504 1504 1505 1505 1505 1505 1505 1505 1505 1505 1504 1504 1503 1502 1501 1500 1500 1499 1498 1497 1495 1494 1492 1491 1490 1488 1487 1485 1484 1483 1482 1480 1478 1477 1476 1475 1474 1473 1473 1472 1472 1472 1473 1473 1473 1473 1474 1475 1477 1479 1481 1484 1486 1489 1491 1494 1496 1498 1500 1503 1505 1507 1510 1512 1514 1515 1517 1519 1520 1522 1523 1525 1526 1528 1529 1531 1532 1533 1534 1535 1536 1536 1537 1538 1538 1539
1503 1504 1504 1504 1504 1504 1505 1505 1504 1504 1503 1503 1502 1501 1500 1499 1499 1498 1497 1496 1495 1493 1491 1490 1488 1487 1485 1484 1482 1481 1479 1478 1476 1474 1473 1472 1471 1470 1469 1469 1468 1468 1468 1469 1469 1470 1470 1471 1472 1473 1474 1477 1480 1484 1486 1489 1492 1494 1496 1499 1501 1503 1505 1508 1510 1512 1514 1516 1517 1519 1520 1522 1523 1524 1526 1528 1529 1530 1531 1533 1534 1534 1535 1536 1537 1537 1538
1504 1504 1504 1504 1503 1503 1503 1503 1503 1502 1502 1501 1501 1500 1499 1498 1498 1497 1496 1494 1493 1491 1489 1488 1486 1484 1483 1481 1479 1477 1476 1474 1472 1470 1469 1467 1466 1465 1465 1464 1464 1464 1464 1464 1466 1467 1467 1467 1468 1469 1470 1473 1477 1481 1484 1486 1489 1492 1494 1497 1499 1501 1503 1506 1508 1510 1512 1514 1516 1517 1518 1520 1521 1522 1524 1526 1527 1528 1530 1531 1532 1532 1533 1534 1535 1536 1537
1503 1503 1503 1503 1503 1503 1502 1502 1502 1501 1501 1500 1500 1499 1498 1497 1496 1495 1494 1493 1491 1489 1488 1486 1484 1482 1480 1478 1475 1473 1472 1470 1468 1466 1464 1463 1462 1461 1460 1459 1459 1459 1460 1461 1462 1463 1463 1463 1465 1467 1469 1472 1475 1479 1481 1484 1487 1490 1493 1495 1498 1500 1502 1504 1506 1509 1511 1512 1514 1516 1517 1518 1519 1521 1522 1524 1525 1527 1528 1529 1530 1531 1531 1533 1534 1535 1536